FW9327 Weather Reports


Display with metric or nautical units.
time (UTC)temp
F
wind
direction
speed
MPH
gust
MPH
rain 1hr
in
rain 24hr
in
rain mn
in
humidity
%
barometer
mb
20260905201557 81 5 0.0 6.0 0.00 0.00 0.00 74 1014.5
20260905194554 83 5 1.0 6.0 0.00 0.00 0.00 72 1014.4
20260905193100 84 0 1.0 4.0 0.00 0.00 0.00 72 1014.5
20260905191555 84 5 2.0 7.0 0.00 0.00 0.00 71 1014.7
20260905190059 85 5 1.0 5.0 0.00 0.00 0.00 70 1014.7
20260905184606 86 5 1.0 9.0 0.00 0.00 0.00 69 1014.6
20260905183115 87 5 1.0 4.0 0.00 0.00 0.00 68 1014.7
20260905181555 88 5 1.0 6.0 0.00 0.00 0.00 66 1014.7
20260905174557 87 0 0.0 6.0 0.00 0.00 0.00 68 1014.4
20260905173053 88 5 2.0 8.0 0.00 0.00 0.00 68 1014.5
20260905171600 88 0 1.0 9.0 0.00 0.00 0.00 68 1014.4
20260905170100 88 5 2.0 8.0 0.00 0.00 0.00 68 1014.6
20260905164555 87 5 1.0 5.0 0.00 0.00 0.00 69 1014.7
20260905163053 87 5 2.0 5.0 0.00 0.00 0.00 69 1014.6
20260905161600 86 5 0.0 5.0 0.00 0.00 0.00 74 1014.5
20260905160106 86 5 1.0 4.0 0.00 0.00 0.00 71 1014.5
20260905154601 85 0 0.0 5.0 0.00 0.00 0.00 73 1014.4
20260905153105 84 5 1.0 5.0 0.00 0.00 0.00 76 1014.4
20260905151608 83 5 1.0 5.0 0.00 0.00 0.00 76 1014.1
20260905150057 82 0 0.0 6.0 0.00 0.00 0.00 77 1014.0
20260905144556 82 0 0.0 5.0 0.00 0.00 0.00 80 1013.9
20260905143103 80 5 0.0 3.0 0.00 0.00 0.00 84 1013.9
20260905141609 79 5 0.0 3.0 0.00 0.00 0.00 87 1013.8
20260905140108 78 5 1.0 5.0 0.00 0.00 0.00 85 1013.7
20260905134600 78 0 1.0 6.0 0.00 0.00 0.00 87 1013.7
20260905133101 78 5 1.0 5.0 0.00 0.00 0.00 88 1013.9
20260905131613 77 0 1.0 5.0 0.00 0.00 0.00 91 1014.0
20260905130100 76 0 0.0 5.0 0.00 0.00 0.00 94 1013.3
20260905124559 76 5 1.0 6.0 0.00 0.00 0.00 95 1013.1
20260905123056 76 0 0.0 3.0 0.00 0.00 0.00 95 1012.9
20260905121553 75 0 0.0 2.0 0.00 0.00 0.00 96 1012.9
20260905120058 74 0 0.0 3.0 0.00 0.00 0.00 96 1012.8
20260905114557 74 0 0.0 0.0 0.00 0.00 0.00 95 1012.6
20260905113056 74 0 0.0 2.0 0.00 0.00 0.00 95 1012.4
20260905111558 74 0 0.0 0.0 0.00 0.00 0.00 95 1012.2
20260905110059 74 0 0.0 1.0 0.00 0.00 0.00 95 1012.0
20260905104558 74 0 0.0 0.0 0.00 0.00 0.00 95 1012.1
20260905103056 74 0 0.0 0.0 0.00 0.00 0.00 95 1012.2
20260905101602 74 0 0.0 0.0 0.00 0.00 0.00 95 1012.1
20260905100119 74 0 0.0 0.0 0.00 0.00 0.00 95 1012.0
20260905094555 74 0 0.0 0.0 0.00 0.00 0.00 95 1012.1
20260905093051 74 0 0.0 0.0 0.00 0.00 0.00 95 1012.0
20260905091559 74 0 0.0 0.0 0.00 0.00 0.00 94 1012.1
20260905090122 74 0 0.0 0.0 0.00 0.00 0.00 94 1012.0
20260905084553 74 0 0.0 0.0 0.00 0.00 0.00 94 1012.0
20260905083052 74 0 0.0 0.0 0.00 0.00 0.00 94 1012.1
20260905081602 75 0 0.0 2.0 0.00 0.00 0.00 94 1012.1
20260905080058 75 0 0.0 2.0 0.00 0.00 0.00 94 1012.0
20260905074604 75 0 0.0 1.0 0.00 0.00 0.00 94 1012.0
20260905073105 75 0 0.0 0.0 0.00 0.00 0.00 93 1012.1
20260905071557 75 0 0.0 0.0 0.00 0.00 0.00 93 1012.1
20260905070059 75 0 0.0 0.0 0.00 0.00 0.00 93 1012.2
20260905064602 76 0 0.0 0.0 0.00 0.00 0.00 92 1012.3
20260905063058 76 0 0.0 1.0 0.00 0.00 0.00 92 1012.3
20260905061557 76 0 0.0 1.0 0.00 0.00 0.00 92 1012.4
20260905060056 76 0 0.0 2.0 0.00 0.00 0.00 91 1012.5
20260905054551 77 0 0.0 0.0 0.00 0.00 0.00 91 1012.5
20260905053055 77 0 0.0 0.0 0.00 0.00 0.00 90 1012.4
20260905051557 78 0 0.0 0.0 0.00 0.00 0.00 89 1012.5
20260905044551 79 0 0.0 1.0 0.00 0.00 0.00 88 1012.3
20260905043059 79 0 0.0 2.0 0.00 0.00 0.00 89 1012.3
20260905041555 78 9 0.0 3.0 0.00 0.00 0.00 91 1012.4
20260905034602 77 5 1.0 3.0 0.00 0.00 0.00 92 1012.3
20260905033103 77 0 0.0 2.0 0.00 0.00 0.00 92 1013.0
20260905031607 77 0 0.0 1.0 0.00 0.00 0.00 92 1013.0
20260905030054 77 0 0.0 0.0 0.00 0.00 0.00 92 1013.1
20260905024558 77 0 0.0 1.0 0.00 0.00 0.00 91 1013.1
20260905023057 77 0 0.0 0.0 0.00 0.00 0.00 90 1013.0
20260905021558 77 0 0.0 0.0 0.00 0.00 0.00 89 1012.7
20260905014558 78 0 0.0 0.0 0.00 0.00 0.00 88 1012.5
20260905013056 79 0 0.0 1.0 0.00 0.00 0.00 87 1012.3
20260905011555 80 0 0.0 1.0 0.00 0.00 0.00 85 1012.2
20260905010104 80 0 0.0 1.0 0.00 0.00 0.00 84 1011.8
20260905004600 81 0 0.0 1.0 0.00 0.00 0.00 82 1011.8
20260905003053 82 0 0.0 1.0 0.00 0.00 0.00 81 1011.7
20260905001555 84 0 0.0 1.0 0.00 0.00 0.00 79 1011.7
20260905000106 85 5 0.0 2.0 0.00 0.00 0.00 76 1011.7
20260904234558 86 9 0.0 5.0 0.00 0.00 0.00 75 1011.7
20260904233054 87 5 1.0 5.0 0.00 0.00 0.00 74 1011.8
20260904231554 87 5 1.0 4.0 0.00 0.00 0.00 72 1012.0
20260904230110 88 5 1.0 5.0 0.00 0.00 0.00 68 1012.0
20260904224557 89 9 1.0 5.0 0.00 0.00 0.00 66 1012.0
20260904223100 92 9 2.0 9.0 0.00 0.00 0.00 63 1012.1
20260904221554 93 0 1.0 8.0 0.00 0.00 0.00 62 1011.9
20260904220120 93 5 1.0 6.0 0.00 0.00 0.00 62 1012.0
20260904214555 93 5 1.0 6.0 0.00 0.00 0.00 60 1011.9
20260904213054 94 5 2.0 6.0 0.00 0.00 0.00 61 1011.8
20260904211604 94 5 2.0 5.0 0.00 0.00 0.00 60 1011.9
20260904210105 94 5 2.0 6.0 0.00 0.00 0.00 60 1012.0
20260904204606 94 5 1.0 5.0 0.00 0.00 0.00 62 1012.1
20260904203108 93 9 1.0 4.0 0.00 0.00 0.00 61 1012.4